Omaha, NE

11:35 AM CST on February 24, 2017 (GMT -0600)
Eppley Airfield

Weather History for KOMA - March, 2014

Change the Weather History Date:

Thursday, March 13, 2014

  Actual Average Record
Temperature  
Mean Temperature 48 °F 38 °F  
Max Temperature 68 °F 50 °F 81 °F (2012)
Min Temperature 28 °F 27 °F 0 °F (1880)
Degree Days  
Heating Degree Days 17 27  
Month to date heating degree days 381  
Since 1 July heating degree days 5179  
Cooling Degree Days 0 0  
Month to date cooling degree days 0  
Year to date cooling degree days 0  
Moisture  
Dew Point 24 °F    
Average Humidity 46    
Maximum Humidity 79    
Minimum Humidity 8    
Precipitation  
Precipitation 0.00 in 0.06 in 1.25 in (1913)
Month to date precipitation 0.66  
Year to date precipitation 2.23  
Snow  
Snow 0.00 in 0.10 in - ()
Month to date snowfall 2.1  
Since 1 July snowfall 23.3  
Snow Depth -    
Sea Level Pressure  
Sea Level Pressure 29.92 in    
Wind  
Wind Speed 8 mph (South)    
Max Wind Speed 22 mph    
Max Gust Speed 30 mph    
Visibility 10 miles    
Events      
T = Trace of Precipitation, MM = Missing Value Source: NWS Daily Summary

Daily Weather History Graph

Daily Weather History Graph

Search for Another Location

Airport or City:

Trip Planner

Search our weather history database for the weather conditions in past years. The results will help you decide how hot, cold, wet, or windy it might be!

Date:

Astronomy

Mar. 13, 2014 Rise Set
Actual Time 7:38 AM CDT 7:28 PM CDT
Civil Twilight 7:11 AM CDT 7:55 PM CDT
Nautical Twilight 6:39 AM CDT 8:27 PM CDT
Astronomical Twilight 6:06 AM CDT 9:00 PM CDT
Moon 4:53 PM CDT (3/13) 5:47 AM CDT (3/13)
Length of Visible Light 12h 44m
Length of Day
11h 49m
Waxing Gibbous, 91% of the Moon is Illuminated
Mar 13
Waxing Gibbous
Mar 16
Full
Mar 23
Last Quarter
Mar 30
New
Apr 7
First Quarter

Hourly Weather History & Observations

Time (CDT) Temp. Windchill Dew Point Humidity Pressure Visibility Wind Dir Wind Speed Gust Speed Precip Events Conditions
12:52 AM 35.1 °F 32.2 °F 27.0 °F 72% 30.08 in 10.0 mi ESE 3.5 mph - N/A   Clear
1:52 AM 32.0 °F 28.7 °F 26.1 °F 79% 30.07 in 10.0 mi SSE 3.5 mph - N/A   Clear
2:52 AM 33.1 °F 27.7 °F 26.1 °F 75% 30.06 in 10.0 mi South 5.8 mph - N/A   Clear
3:52 AM 32.0 °F 28.7 °F 24.1 °F 73% 30.05 in 10.0 mi SSE 3.5 mph - N/A   Clear
4:52 AM 30.0 °F 25.2 °F 24.1 °F 79% 30.04 in 10.0 mi SE 4.6 mph - N/A   Clear
5:52 AM 28.9 °F 21.9 °F 21.9 °F 75% 30.04 in 10.0 mi SSE 6.9 mph - N/A   Clear
6:52 AM 28.0 °F 20.0 °F 21.9 °F 78% 30.04 in 10.0 mi SE 8.1 mph - N/A   Clear
7:52 AM 28.9 °F 21.9 °F 21.9 °F 75% 30.04 in 10.0 mi SE 6.9 mph - N/A   Clear
8:52 AM 34.0 °F 28.0 °F 26.1 °F 73% 30.04 in 10.0 mi SE 6.9 mph - N/A   Clear
9:52 AM 39.9 °F 36.7 °F 27.0 °F 60% 30.03 in 10.0 mi SSE 4.6 mph - N/A   Clear
10:52 AM 48.9 °F - 28.0 °F 44% 30.01 in 10.0 mi SE 6.9 mph - N/A   Clear
11:52 AM 55.9 °F - 27.0 °F 33% 29.98 in 10.0 mi SW 6.9 mph - N/A   Clear
12:52 PM 62.1 °F - 26.1 °F 25% 29.94 in 10.0 mi SW 13.8 mph - N/A   Clear
1:52 PM 63.0 °F - 25.0 °F 24% 29.91 in 10.0 mi SW 18.4 mph 25.3 mph N/A   Clear
2:52 PM 66.0 °F - 21.9 °F 19% 29.86 in 10.0 mi SSW 21.9 mph 29.9 mph N/A   Clear
3:52 PM 66.9 °F - 23.0 °F 19% 29.82 in 10.0 mi SW 12.7 mph 27.6 mph N/A   Clear
4:52 PM 68.0 °F - 21.9 °F 17% 29.79 in 10.0 mi SW 18.4 mph 21.9 mph N/A   Clear
5:52 PM 68.0 °F - 19.9 °F 16% 29.76 in 10.0 mi SSW 15.0 mph 25.3 mph N/A   Clear
6:52 PM 66.0 °F - 19.9 °F 17% 29.75 in 10.0 mi SSW 13.8 mph 23.0 mph N/A   Clear
7:52 PM 63.0 °F - 19.9 °F 19% 29.74 in 10.0 mi South 9.2 mph - N/A   Partly Cloudy
8:52 PM 57.0 °F - 21.0 °F 25% 29.73 in 10.0 mi South 9.2 mph - N/A   Partly Cloudy
9:52 PM 46.0 °F 41.4 °F 23.0 °F 40% 29.73 in 10.0 mi SSE 9.2 mph - N/A   Scattered Clouds
10:52 PM 45.0 °F 39.7 °F 24.1 °F 44% 29.70 in 10.0 mi SSE 10.4 mph - N/A   Scattered Clouds
11:52 PM 46.9 °F - 23.0 °F 39% 29.67 in 10.0 mi South 10.4 mph - N/A   Scattered Clouds